Yankton, SD

2:52 PM CDT on August 28, 2016 (GMT -0500)
Gurney Municipal

Weather History for KYKN - May, 2014

Change the Weather History Date:

Saturday, May 10, 2014

  Actual Average Record
Temperature  
Mean Temperature 62 °F -  
Max Temperature 78 °F 71 °F 94 °F (1987)
Min Temperature 46 °F 46 °F 27 °F (1981)
Degree Days  
Heating Degree Days 3    
Growing Degree Days 12 (Base 50)    
Moisture  
Dew Point 43 °F    
Average Humidity 53    
Maximum Humidity 82    
Minimum Humidity 30    
Precipitation  
Precipitation 0.00 in - - ()
Sea Level Pressure  
Sea Level Pressure 29.72 in    
Wind  
Wind Speed 9 mph (ESE)    
Max Wind Speed 18 mph    
Max Gust Speed 26 mph    
Visibility 10 miles    
Events      
Averages and records for this station are not official NWS values.
T = Trace of Precipitation, MM = Missing Value Source: NWS Daily Summary

Daily Weather History Graph

Daily Weather History Graph

Search for Another Location

Airport or City:

Trip Planner

Search our weather history database for the weather conditions in past years. The results will help you decide how hot, cold, wet, or windy it might be!

Date:

Astronomy

May. 10, 2014 Rise Set
Actual Time 6:12 AM CDT 8:40 PM CDT
Civil Twilight 5:40 AM CDT 9:12 PM CDT
Nautical Twilight 5:00 AM CDT 9:52 PM CDT
Astronomical Twilight 4:15 AM CDT 10:37 PM CDT
Moon 4:31 PM CDT (5/10) 3:52 AM CDT (5/10)
Length of Visible Light 15h 32m
Length of Day
14h 28m
Waxing Gibbous, 82% of the Moon is Illuminated
May 10
Waxing Gibbous
May 14
Full
May 21
Last Quarter
May 28
New
Jun 5
First Quarter

Hourly Weather History & Observations

Time (CDT) Temp. Windchill Dew Point Humidity Pressure Visibility Wind Dir Wind Speed Gust Speed Precip Events Conditions
12:15 AM 50.0 °F - 35.6 °F 58% 29.80 in 10.0 mi East 5.8 mph - N/A   Clear
12:35 AM 48.2 °F - 35.6 °F 62% 29.80 in 10.0 mi East 6.9 mph - N/A   Clear
12:55 AM 50.0 °F - 35.6 °F 58% 29.80 in 10.0 mi East 5.8 mph - N/A   Clear
1:15 AM 48.2 °F - 35.6 °F 62% 29.80 in 10.0 mi ENE 6.9 mph - N/A   Clear
1:35 AM 48.2 °F - 35.6 °F 62% 29.80 in 10.0 mi East 6.9 mph - N/A   Clear
1:55 AM 46.4 °F 42.9 °F 35.6 °F 66% 29.80 in 10.0 mi East 6.9 mph - N/A   Clear
2:15 AM 46.4 °F 42.4 °F 35.6 °F 66% 29.79 in 10.0 mi ENE 8.1 mph - N/A   Clear
2:35 AM 46.4 °F 42.9 °F 35.6 °F 66% 29.79 in 10.0 mi ENE 6.9 mph - N/A   Clear
2:55 AM 46.4 °F 42.4 °F 35.6 °F 66% 29.78 in 10.0 mi East 8.1 mph - N/A   Clear
3:15 AM 46.4 °F 44.3 °F 35.6 °F 66% 29.77 in 10.0 mi East 4.6 mph - N/A   Clear
3:35 AM 46.4 °F 42.9 °F 35.6 °F 66% 29.76 in 10.0 mi ENE 6.9 mph - N/A   Clear
3:55 AM 46.4 °F 42.9 °F 35.6 °F 66% 29.76 in 10.0 mi East 6.9 mph - N/A   Clear
4:15 AM 46.4 °F 41.9 °F 35.6 °F 66% 29.76 in 10.0 mi East 9.2 mph - N/A   Clear
4:35 AM 48.2 °F - 35.6 °F 62% 29.76 in 10.0 mi East 6.9 mph - N/A   Clear
4:55 AM 48.2 °F - 35.6 °F 62% 29.74 in 10.0 mi East 12.7 mph - N/A   Scattered Clouds
5:15 AM 48.2 °F - 35.6 °F 62% 29.73 in 10.0 mi ENE 9.2 mph - N/A   Overcast
5:35 AM 46.4 °F 43.5 °F 37.4 °F 71% 29.73 in 10.0 mi ENE 5.8 mph - N/A   Mostly Cloudy
5:55 AM 46.4 °F 42.4 °F 37.4 °F 71% 29.72 in 10.0 mi ENE 8.1 mph - N/A   Clear
6:15 AM 46.4 °F 45.2 °F 39.2 °F 76% 29.72 in 10.0 mi East 3.5 mph - N/A   Clear
6:35 AM 48.2 °F - 41.0 °F 76% 29.72 in 10.0 mi ESE 8.1 mph - N/A   Clear
6:55 AM 48.2 °F - 42.8 °F 82% 29.72 in 10.0 mi ESE 6.9 mph - N/A   Clear
7:15 AM 50.0 °F - 42.8 °F 76% 29.72 in 10.0 mi ESE 6.9 mph - N/A   Clear
7:35 AM 51.8 °F - 44.6 °F 76% 29.72 in 10.0 mi ESE 6.9 mph - N/A   Clear
7:55 AM 53.6 °F - 46.4 °F 77% 29.72 in 10.0 mi ESE 6.9 mph - N/A   Clear
8:15 AM 55.4 °F - 48.2 °F 77% 29.71 in 10.0 mi SE 11.5 mph - N/A   Clear
8:35 AM 57.2 °F - 48.2 °F 72% 29.71 in 10.0 mi SE 9.2 mph - N/A   Partly Cloudy
8:55 AM 59.0 °F - 48.2 °F 67% 29.71 in 10.0 mi SE 13.8 mph - N/A   Partly Cloudy
9:15 AM 60.8 °F - 48.2 °F 63% 29.71 in 10.0 mi SSE 11.5 mph - N/A   Clear
9:35 AM 62.6 °F - 48.2 °F 59% 29.72 in 10.0 mi South 9.2 mph - N/A   Clear
9:55 AM 62.6 °F - 48.2 °F 59% 29.71 in 10.0 mi South 12.7 mph - N/A   Clear
10:15 AM 62.6 °F - 48.2 °F 59% 29.71 in 10.0 mi South 13.8 mph - N/A   Partly Cloudy
10:35 AM 62.6 °F - 46.4 °F 55% 29.69 in 10.0 mi SE 11.5 mph - N/A   Scattered Clouds
10:55 AM 64.4 °F - 48.2 °F 56% 29.68 in 10.0 mi ESE 9.2 mph - N/A   Partly Cloudy
11:15 AM 66.2 °F - 48.2 °F 52% 29.69 in 10.0 mi SSE 12.7 mph 18.4 mph N/A   Clear
11:35 AM 69.8 °F - 48.2 °F 46% 29.69 in 10.0 mi SSE 18.4 mph 21.9 mph N/A   Clear
11:55 AM 69.8 °F - 48.2 °F 46% 29.68 in 10.0 mi SSE 15.0 mph - N/A   Clear
12:15 PM 69.8 °F - 48.2 °F 46% 29.68 in 10.0 mi South 17.3 mph - N/A   Clear
12:35 PM 71.6 °F - 48.2 °F 43% 29.67 in 10.0 mi South 15.0 mph 20.7 mph N/A   Clear
12:55 PM 73.4 °F - 48.2 °F 41% 29.67 in 10.0 mi SW 10.4 mph - N/A   Clear
1:15 PM 73.4 °F - 46.4 °F 38% 29.66 in 10.0 mi SW 15.0 mph 18.4 mph N/A   Clear
1:35 PM 75.2 °F - 46.4 °F 36% 29.66 in 10.0 mi SSW 12.7 mph 19.6 mph N/A   Clear
1:55 PM 77.0 °F - 46.4 °F 34% 29.65 in 10.0 mi SW 11.5 mph 16.1 mph N/A   Partly Cloudy
2:15 PM 75.2 °F - 44.6 °F 34% 29.65 in 10.0 mi WSW 13.8 mph 20.7 mph N/A   Clear
2:35 PM 78.8 °F - 44.6 °F 30% 29.65 in 10.0 mi SW 13.8 mph 21.9 mph N/A   Partly Cloudy
2:55 PM 78.8 °F - 44.6 °F 30% 29.65 in 10.0 mi SW 10.4 mph 19.6 mph N/A   Clear
3:15 PM 78.8 °F - 44.6 °F 30% 29.65 in 10.0 mi WSW 12.7 mph 23.0 mph N/A   Clear
3:35 PM 77.0 °F - 44.6 °F 32% 29.66 in 10.0 mi West 11.5 mph 24.2 mph N/A   Clear
3:55 PM 77.0 °F - 46.4 °F 34% 29.66 in 10.0 mi West 18.4 mph 25.3 mph N/A   Clear
4:15 PM 77.0 °F - 46.4 °F 34% 29.67 in 10.0 mi WNW 16.1 mph 25.3 mph N/A   Clear
4:35 PM 77.0 °F - 44.6 °F 32% 29.67 in 10.0 mi West 13.8 mph 24.2 mph N/A   Clear
4:55 PM 77.0 °F - 44.6 °F 32% 29.67 in 10.0 mi West 16.1 mph 26.5 mph N/A   Clear
5:15 PM 75.2 °F - 44.6 °F 34% 29.67 in 10.0 mi West 13.8 mph - N/A   Clear
5:35 PM 75.2 °F - 44.6 °F 34% 29.68 in 10.0 mi West 13.8 mph 19.6 mph N/A   Clear
5:55 PM 73.4 °F - 44.6 °F 36% 29.68 in 10.0 mi West 10.4 mph 17.3 mph N/A   Partly Cloudy
6:15 PM 75.2 °F - 44.6 °F 34% 29.69 in 10.0 mi WNW 11.5 mph 16.1 mph N/A   Clear
6:35 PM 75.2 °F - 46.4 °F 36% 29.69 in 10.0 mi WNW 13.8 mph 21.9 mph N/A   Clear
6:55 PM 73.4 °F - 46.4 °F 38% 29.70 in 10.0 mi WNW 13.8 mph - N/A   Clear
7:15 PM 73.4 °F - 46.4 °F 38% 29.70 in 10.0 mi NW 12.7 mph 19.6 mph N/A   Clear
7:35 PM 71.6 °F - 46.4 °F 41% 29.71 in 10.0 mi NW 15.0 mph - N/A   Clear
7:55 PM - - - N/A% 29.71 in 10.0 mi NW 11.5 mph - N/A   Clear
8:15 PM 68.0 °F - 44.6 °F 43% 29.72 in 10.0 mi NW 9.2 mph - N/A   Clear
8:35 PM 64.4 °F - 44.6 °F 49% 29.74 in 10.0 mi NW 9.2 mph - N/A   Clear
8:55 PM 62.6 °F - 44.6 °F 52% 29.74 in 10.0 mi NNW 8.1 mph - N/A   Clear
9:15 PM 62.6 °F - 42.8 °F 48% 29.75 in 10.0 mi NNW 9.2 mph - N/A   Clear
9:35 PM 59.0 °F - 42.8 °F 55% 29.76 in 10.0 mi NNW 10.4 mph - N/A   Clear
9:55 PM 59.0 °F - 42.8 °F 55% 29.76 in 10.0 mi NNW 8.1 mph - N/A   Clear
10:15 PM 57.2 °F - 42.8 °F 59% 29.78 in 10.0 mi North 5.8 mph - N/A   Clear
10:35 PM 55.4 °F - 41.0 °F 58% 29.79 in 10.0 mi NNE 4.6 mph - N/A   Clear
10:55 PM 59.0 °F - 41.0 °F 51% 29.80 in 10.0 mi North 5.8 mph - N/A   Clear
11:15 PM 59.0 °F - 39.2 °F 48% 29.80 in 10.0 mi NNE 6.9 mph - N/A   Clear
11:35 PM 57.2 °F - 39.2 °F 51% 29.81 in 10.0 mi Calm Calm - N/A   Clear
11:55 PM 57.2 °F - 39.2 °F 51% 29.82 in 10.0 mi Calm Calm - N/A   Clear